Wind_Speed
8 7 8 6 4 5 7 6 5 4 3 2 1 1 2 3 3 4 4 4 4 4 4 4 5 5 5 5 5 5 5 6 6 6 6 5 4 3 3 3 3 3 3 4 5 6 7 7 8
6 5 6 4 5 7 7 6 4 4 3 3 2 3 2 2 3 4 4 5 5 5 4 4 4 4 4 3 3 3 4 4 5 5 5 5 5 4 3 3 3 3 3 4 4 5 5 5 6
4 4 5 2 5 6 6 5 5 5 4 4 4 3 2 2 3 4 5 5 6 6 6 5 5 4 4 3 3 2 2 2 3 3 4 4 4 4 3 3 3 2 2 3 3 4 4 5 5
3 3 3 3 4 5 5 5 6 5 5 5 4 4 4 3 3 4 5 6 7 7 8 7 7 6 6 5 5 4 3 2 2 1 2 2 2 2 3 3 2 2 2 2 2 3 3 4 4
2 3 3 3 4 4 5 5 6 6 6 6 5 5 4 4 5 5 6 7 7 8 9 9 9 9 8 8 7 6 6 5 4 3 2 2 1 1 1 1 2 2 2 2 1 2 3 3 4
2 3 4 5 6 5 6 6 6 7 7 8 7 6 5 5 6 7 8 8 8 9 10 11 11 11 11 10 10 9 8 7 7 6 5 4 3 3 2 1 1 0 0 1 1 1 1 2 3
3 2 5 6 7 7 8 8 8 8 8 9 9 8 7 7 7 8 9 10 10 10 11 13 13 13 13 13 12 12 11 10 10 9 8 7 6 5 5 4 3 3 2 1 1 0 0 1 3
5 5 6 8 8 10 11 11 11 10 10 10 10 9 9 10 10 11 11 12 12 13 13 14 15 15 15 15 15 15 14 13 13 12 11 11 9 8 8 7 6 6 5 4 3 2 1 1 2
7 6 8 11 10 12 14 14 14 13 13 13 13 13 12 13 13 13 14 14 15 15 15 15 16 16 17 17 17 17 17 16 16 15 15 14 13 11 11 10 9 9 8 7 6 4 4 3 2
9 9 11 14 14 15 16 16 16 16 15 16 16 16 16 16 16 17 17 17 18 18 18 18 18 19 19 19 20 19 19 19 19 18 18 17 16 15 14 13 12 11 10 10 9 7 6 6 5
11 12 14 15 17 17 17 18 19 19 19 19 20 20 20 20 20 21 21 21 21 22 22 22 22 22 22 21 21 22 22 23 22 22 21 20 20 18 17 16 15 14 13 12 11 11 9 8 7
13 15 16 16 18 19 19 20 21 22 23 23 24 24 24 24 24 25 25 25 25 26 26 26 26 25 24 24 24 25 26 27 27 26 25 23 22 21 19 19 18 17 16 15 14 13 12 11 9
16 17 19 20 21 22 22 23 24 25 26 27 27 27 28 28 29 29 30 30 30 30 30 30 30 30 30 29 28 28 28 29 29 28 28 28 26 25 23 22 21 20 18 17 16 15 14 13 12
20 21 22 24 25 25 26 26 27 28 29 30 31 31 32 32 33 34 34 34 35 35 35 35 35 35 35 33 33 32 32 32 31 30 29 30 29 28 27 26 24 23 21 20 20 18 17 16 15
22 24 26 27 27 27 29 29 28 30 32 32 33 34 34 35 36 37 37 38 39 39 39 40 40 40 39 38 38 37 35 35 34 32 32 31 32 31 31 29 28 26 25 23 23 21 20 19 17
23 25 27 28 28 28 31 32 31 32 33 34 34 35 36 36 37 38 38 39 41 41 42 42 43 43 43 43 42 42 41 39 37 34 34 33 32 32 31 31 30 30 28 27 25 24 22 22 20
22 20 24 30 31 32 33 34 32 32 33 34 34 35 36 36 37 37 38 39 40 42 43 44 44 45 46 46 46 46 46 44 41 39 37 37 35 33 32 32 33 33 31 29 28 27 25 23 22
23 25 26 33 35 35 36 34 32 32 33 34 34 34 35 35 36 36 36 37 39 40 41 42 44 45 45 46 46 47 48 47 45 43 42 41 39 37 34 32 34 34 33 32 31 30 29 26 24
25 27 28 34 34 33 34 34 33 32 32 33 33 34 34 34 34 35 35 35 36 37 38 39 41 43 43 44 45 46 45 45 45 44 43 42 40 39 38 35 34 34 33 33 33 32 30 29 28
26 27 28 31 31 30 32 33 31 30 30 31 32 33 34 34 34 34 34 34 34 35 36 37 38 39 40 41 43 44 45 45 45 44 44 44 42 39 38 37 34 34 34 32 32 32 32 31 30
25 26 26 28 29 29 29 30 30 28 27 28 29 29 30 30 31 31 31 31 31 32 33 33 34 35 36 37 38 39 41 42 43 43 43 43 43 40 38 36 35 34 32 31 30 30 30 31 31
24 24 24 25 25 26 26 27 29 28 26 27 26 26 26 26 26 26 26 26 27 28 28 29 29 31 32 33 34 35 36 38 39 40 41 41 41 40 40 37 35 34 34 32 30 29 29 30 31
21 22 21 22 21 21 22 23 28 26 25 25 25 24 23 22 22 22 23 23 23 23 24 25 25 26 26 27 28 29 31 34 35 37 38 38 37 37 37 36 35 34 34 33 31 30 29 30 29
19 19 19 18 18 19 19 21 26 24 24 23 23 23 21 20 19 19 20 19 19 19 19 19 19 20 21 22 23 25 26 28 30 33 34 34 34 34 33 32 33 32 32 32 31 29 29 29 29
17 18 17 16 17 19 20 21 22 21 21 21 21 20 19 17 17 17 17 17 17 17 17 16 15 16 16 17 18 19 21 22 24 26 29 30 31 31 31 31 31 31 31 31 31 30 30 30 30
16 15 15 12 9 14 17 18 18 19 19 19 19 18 17 16 15 15 16 16 16 15 15 14 14 14 14 13 13 14 14 16 18 20 22 25 27 28 28 28 29 30 30 30 31 32 30 29 29
15 14 13 12 10 10 15 18 17 17 18 18 17 17 16 15 15 16 16 17 16 16 14 14 14 14 13 12 11 10 9 10 12 14 17 19 21 23 25 27 28 29 30 31 31 30 30 30 30
14 13 13 12 12 9 12 17 19 18 17 17 17 16 16 16 17 17 17 18 18 18 17 16 16 15 14 13 12 9 8 7 6 7 9 13 16 19 21 24 26 27 29 30 31 30 30 30 30
14 14 13 13 13 12 12 15 17 17 16 16 16 15 16 16 17 18 17 18 19 20 19 19 18 17 16 15 13 11 9 8 7 6 5 7 10 12 15 19 22 24 25 27 28 29 30 30 31
15 15 14 14 13 13 14 15 15 16 16 16 16 16 17 17 18 18 18 18 19 19 20 19 19 19 18 18 16 14 12 9 8 7 6 6 7 9 11 14 17 21 24 25 27 28 29 29 29
Wind_Direction
64 69 72 70 63 65 57 54 48 39 35 33 342 266 216 212 205 224 217 200 191 175 161 150 140 134 128 121 111 104 100 98 95 92 92 93 97 106 120 145 164 176 183 190 197 204 214 223 228
55 61 67 51 52 52 47 40 33 17 4 351 330 323 310 254 245 244 233 223 219 209 196 187 176 166 156 148 137 124 114 109 104 98 94 92 93 97 105 121 136 157 175 182 191 201 209 216 222
44 46 60 30 51 46 39 26 16 0 347 330 323 327 314 289 271 254 244 243 242 234 225 220 217 211 204 198 191 178 159 139 123 111 104 98 95 95 97 103 113 125 148 172 188 199 204 210 216
30 26 31 25 30 29 22 11 5 357 341 334 333 327 315 301 277 264 254 253 252 250 244 239 235 233 231 230 227 222 217 207 193 167 138 120 108 100 96 95 96 103 117 138 168 191 198 205 206
358 350 357 357 3 3 348 347 350 341 335 331 337 337 329 311 289 276 265 261 258 257 256 252 249 246 243 242 241 240 239 239 239 238 235 223 202 156 115 104 99 98 102 111 130 169 186 197 205
331 340 327 320 331 330 319 325 326 322 323 322 326 327 322 312 300 289 279 270 264 262 262 259 256 254 251 249 248 247 247 247 248 250 251 250 248 249 252 253 236 191 115 106 99 116 170 194 209
276 259 290 294 298 300 301 301 304 305 308 310 314 315 311 304 298 290 285 279 272 267 265 265 262 259 255 252 251 250 250 251 251 252 254 254 253 254 256 259 260 258 254 252 258 52 133 191 213
277 277 280 274 279 285 287 290 293 294 296 296 298 299 297 295 294 290 287 283 279 274 269 267 265 262 258 255 253 252 252 252 253 253 254 255 254 254 256 258 259 259 258 256 256 260 259 241 230
280 275 270 269 273 280 285 287 287 289 289 287 286 287 287 288 288 288 287 285 282 278 274 270 264 262 260 257 255 253 252 253 253 254 254 255 255 255 256 258 257 258 258 258 257 254 252 252 250
283 277 272 282 284 282 287 288 287 287 283 282 282 282 283 283 284 283 283 282 280 278 275 273 269 263 260 257 256 254 252 253 254 254 255 255 254 254 256 257 257 257 258 259 258 255 251 250 251
283 282 278 283 285 286 288 289 288 287 285 283 282 281 280 281 281 280 277 276 276 276 276 274 272 269 266 261 257 255 255 255 254 255 254 255 254 252 251 255 256 256 257 258 258 256 253 251 251
284 287 288 289 290 291 291 290 290 289 287 286 283 283 282 279 279 278 277 274 272 272 272 271 273 271 269 268 265 258 258 258 256 255 255 254 254 253 250 251 254 255 255 256 257 258 254 251 249
288 289 291 291 292 293 293 293 293 291 290 288 286 284 283 280 278 277 276 274 272 270 269 268 268 268 269 267 267 264 263 262 261 259 256 254 253 252 251 251 252 252 253 254 255 256 253 251 248
290 292 292 293 294 295 294 294 293 291 290 289 287 285 283 281 279 277 275 274 272 270 269 268 268 267 268 269 268 267 264 262 264 261 260 256 254 254 252 253 252 251 251 251 252 253 252 250 249
292 294 295 295 295 296 295 294 295 292 291 289 288 286 284 282 280 278 277 275 273 272 270 268 268 268 268 268 269 268 268 266 265 264 265 262 255 254 253 251 249 249 250 250 250 250 250 250 249
296 302 302 299 298 298 298 298 298 295 293 291 289 288 286 284 282 281 279 277 275 273 272 270 270 269 268 268 268 269 269 269 268 268 269 269 264 258 258 253 250 249 249 251 250 248 250 250 248
302 299 292 294 297 302 301 301 300 297 295 293 291 289 288 287 285 283 281 279 277 275 274 272 271 270 269 268 268 269 270 270 270 269 269 268 267 265 262 257 253 251 250 250 250 246 247 248 248
291 292 291 292 300 304 302 301 300 299 297 295 294 292 291 290 288 287 284 282 280 279 277 275 273 271 271 270 269 269 269 269 268 268 267 267 266 266 265 262 258 256 254 251 249 246 245 246 247
292 292 290 290 299 300 300 301 302 300 298 296 295 294 294 293 291 290 288 286 284 282 279 277 275 273 271 270 269 268 268 268 267 265 264 264 266 266 265 264 263 260 258 256 252 247 245 245 247
294 294 294 294 300 302 302 302 302 301 299 297 296 295 295 294 293 292 291 290 287 284 282 279 277 274 273 272 271 269 268 267 266 264 262 263 263 263 263 264 264 262 260 259 257 251 246 246 246
298 299 301 302 305 304 304 305 305 307 305 301 300 298 298 297 296 294 293 292 291 289 286 282 278 276 274 272 270 268 266 265 263 262 261 261 262 261 262 262 263 260 258 257 256 252 248 246 245
303 306 306 306 307 309 313 313 312 318 316 312 310 307 305 303 302 300 299 298 297 295 292 288 284 280 276 273 270 268 266 265 262 260 259 258 260 259 259 260 261 259 256 255 252 251 250 249 247
309 311 311 310 311 312 316 317 315 324 322 319 318 316 314 312 310 308 307 305 304 302 298 295 291 286 280 276 272 270 266 264 261 259 257 256 256 256 256 257 258 258 256 254 251 249 249 248 247
317 317 316 316 321 325 324 321 320 329 325 325 324 324 322 320 320 320 319 317 313 312 310 307 302 296 288 281 277 273 269 265 261 257 254 253 253 253 252 252 252 252 251 251 247 247 247 249 246
327 328 332 336 333 322 322 320 326 329 328 330 331 333 333 333 334 334 334 331 328 325 325 324 318 311 305 296 287 280 273 268 263 257 252 250 249 248 247 247 246 246 246 245 245 246 245 246 246
338 338 339 335 316 310 323 330 337 334 334 337 340 343 345 348 351 353 353 350 347 344 340 337 337 331 325 318 307 297 286 275 264 256 251 249 246 243 243 243 243 243 244 245 246 244 243 244 245
348 349 348 345 346 342 334 345 348 345 346 348 351 356 2 7 8 10 9 9 10 7 3 360 360 356 350 341 333 323 311 295 272 259 250 246 241 239 239 240 241 242 242 242 241 242 241 241 243
2 2 2 4 7 5 342 348 355 356 357 1 3 8 15 19 21 22 23 25 25 24 22 19 13 10 6 5 3 355 343 330 304 273 256 245 240 240 239 239 240 241 240 241 242 243 241 242 244
15 16 16 15 18 11 0 359 1 4 7 9 14 20 24 26 25 26 28 29 30 31 29 26 24 21 19 19 18 11 4 353 344 322 291 260 250 249 247 244 241 241 241 242 243 243 242 244 246
23 23 22 20 20 18 14 14 13 16 17 21 25 28 31 32 30 31 30 29 27 27 27 25 25 25 25 28 26 24 19 10 1 352 333 306 282 267 261 256 250 246 243 243 244 245 244 246 246
Height
5922 5921 5921 5921 5921 5920 5919 5919 5918 5918 5918 5917 5916 5916 5916 5917 5918 5920 5918 5917 5917 5917 5917 5917 5916 5916 5916 5916 5915 5915 5914 5913 5913 5912 5912 5911 5910 5910 5910 5909 5909 5909 5909 5909 5910 5910 5911 5911 5912
5924 5923 5923 5923 5921 5920 5921 5920 5919 5919 5919 5918 5917 5917 5917 5917 5917 5917 5917 5917 5917 5917 5917 5917 5917 5917 5917 5916 5916 5916 5915 5915 5914 5913 5913 5912 5912 5911 5911 5910 5910 5910 5910 5910 5910 5910 5910 5911 5911
5925 5924 5925 5924 5922 5922 5922 5921 5920 5920 5919 5919 5919 5919 5918 5917 5917 5917 5917 5917 5917 5917 5917 5917 5917 5917 5917 5917 5916 5916 5916 5915 5915 5914 5914 5913 5913 5912 5912 5911 5910 5910 5910 5910 5910 5910 5910 5910 5911
5926 5926 5926 5925 5923 5922 5922 5921 5921 5921 5920 5919 5919 5919 5917 5917 5917 5917 5917 5917 5917 5917 5917 5917 5916 5916 5916 5916 5916 5916 5916 5916 5915 5915 5914 5914 5913 5913 5912 5912 5911 5911 5910 5910 5910 5910 5910 5910 5910
5927 5926 5924 5923 5923 5923 5922 5922 5922 5921 5920 5919 5920 5918 5918 5918 5917 5916 5916 5916 5916 5916 5916 5916 5916 5916 5915 5915 5915 5915 5915 5915 5915 5915 5914 5914 5914 5913 5913 5912 5912 5911 5911 5910 5910 5910 5910 5910 5910
5928 5927 5925 5924 5923 5923 5922 5922 5922 5921 5920 5919 5919 5919 5918 5918 5917 5916 5916 5915 5915 5915 5915 5915 5914 5914 5914 5914 5914 5914 5914 5914 5914 5914 5914 5914 5913 5913 5913 5912 5912 5911 5911 5911 5910 5910 5910 5910 5910
5929 5928 5926 5925 5924 5923 5923 5922 5922 5921 5921 5920 5919 5918 5917 5917 5916 5915 5915 5914 5914 5914 5913 5913 5913 5912 5912 5913 5913 5913 5913 5913 5913 5913 5913 5913 5913 5912 5912 5912 5911 5911 5911 5911 5910 5910 5910 5910 5909
5927 5928 5926 5924 5924 5923 5923 5922 5921 5921 5920 5919 5919 5918 5916 5916 5915 5914 5913 5913 5912 5912 5911 5911 5910 5910 5910 5910 5910 5910 5910 5911 5911 5911 5911 5911 5911 5911 5911 5911 5911 5910 5910 5910 5910 5910 5910 5910 5909
5926 5928 5925 5921 5922 5923 5922 5921 5921 5920 5919 5918 5917 5916 5914 5914 5913 5913 5912 5911 5910 5909 5909 5908 5908 5908 5907 5907 5907 5907 5908 5908 5908 5908 5909 5909 5909 5910 5910 5909 5909 5909 5909 5909 5909 5909 5909 5909 5909
5925 5925 5924 5921 5921 5921 5920 5920 5919 5918 5917 5915 5915 5913 5912 5912 5911 5910 5909 5908 5907 5906 5905 5905 5904 5904 5903 5903 5903 5903 5904 5904 5904 5905 5905 5906 5907 5907 5907 5907 5907 5907 5908 5908 5908 5908 5908 5908 5908
5923 5923 5922 5921 5920 5919 5918 5917 5916 5915 5914 5913 5912 5910 5909 5908 5907 5906 5905 5904 5903 5902 5901 5900 5899 5898 5898 5898 5898 5898 5899 5900 5900 5900 5901 5902 5902 5903 5904 5904 5905 5905 5905 5905 5906 5906 5906 5907 5907
5921 5920 5919 5919 5917 5916 5915 5914 5913 5911 5910 5909 5907 5906 5905 5904 5902 5901 5900 5899 5898 5898 5897 5896 5895 5894 5893 5893 5893 5893 5894 5894 5895 5895 5896 5897 5898 5899 5900 5901 5901 5902 5902 5903 5903 5904 5904 5905 5905
5918 5918 5916 5915 5914 5912 5911 5910 5909 5907 5905 5904 5902 5901 5899 5898 5896 5895 5894 5893 5892 5892 5891 5890 5889 5889 5888 5888 5888 5887 5888 5888 5889 5889 5890 5891 5892 5894 5895 5896 5898 5898 5899 5900 5900 5901 5902 5902 5903
5915 5914 5913 5911 5910 5908 5907 5906 5904 5902 5899 5898 5896 5894 5892 5891 5889 5888 5887 5886 5885 5884 5884 5883 5882 5882 5882 5881 5881 5881 5881 5881 5882 5883 5883 5884 5886 5888 5889 5891 5892 5894 5895 5896 5896 5897 5898 5899 5900
5912 5911 5909 5907 5905 5903 5901 5900 5899 5895 5893 5891 5889 5887 5885 5883 5881 5880 5879 5878 5876 5876 5875 5874 5874 5874 5874 5874 5874 5874 5874 5874 5874 5875 5875 5875 5877 5880 5882 5884 5886 5888 5889 5891 5892 5893 5894 5895 5897
5909 5907 5904 5902 5900 5898 5897 5894 5893 5889 5887 5884 5882 5879 5877 5875 5873 5872 5870 5869 5867 5866 5865 5865 5865 5865 5865 5865 5865 5865 5866 5867 5867 5868 5869 5868 5869 5873 5875 5877 5879 5881 5883 5885 5887 5889 5890 5891 5892
5906 5904 5900 5896 5894 5892 5890 5887 5886 5883 5880 5877 5874 5871 5869 5867 5865 5863 5861 5859 5858 5856 5855 5855 5854 5854 5854 5855 5855 5856 5856 5858 5859 5861 5862 5863 5863 5865 5868 5870 5872 5874 5877 5879 5881 5883 5885 5886 5888
5903 5901 5898 5891 5889 5888 5884 5881 5879 5876 5873 5870 5867 5864 5861 5859 5856 5854 5852 5850 5848 5846 5845 5844 5844 5843 5843 5844 5845 5846 5847 5848 5850 5852 5854 5855 5857 5858 5861 5863 5865 5866 5869 5872 5874 5876 5879 5881 5882
5900 5898 5895 5888 5887 5883 5879 5875 5873 5870 5866 5863 5859 5856 5853 5851 5848 5845 5843 5841 5839 5837 5835 5834 5833 5832 5833 5833 5834 5835 5836 5838 5840 5842 5844 5846 5848 5850 5853 5855 5857 5859 5861 5864 5866 5869 5872 5874 5876
5896 5893 5890 5884 5882 5878 5873 5869 5866 5863 5860 5856 5853 5849 5846 5843 5840 5837 5834 5832 5829 5827 5825 5824 5822 5822 5822 5822 5822 5823 5824 5826 5828 5831 5833 5836 5839 5841 5844 5847 5849 5851 5853 5856 5858 5861 5864 5867 5869
5891 5888 5885 5880 5876 5872 5869 5864 5860 5857 5854 5850 5846 5843 5839 5836 5833 5830 5827 5824 5821 5818 5816 5814 5813 5812 5812 5812 5812 5812 5813 5815 5817 5820 5822 5826 5829 5832 5835 5838 5841 5844 5846 5848 5851 5853 5856 5859 5862
5886 5883 5880 5876 5872 5867 5864 5859 5854 5851 5848 5844 5841 5837 5834 5830 5827 5823 5820 5817 5814 5811 5808 5806 5804 5803 5802 5801 5801 5802 5803 5804 5806 5809 5812 5815 5818 5822 5826 5829 5832 5835 5838 5841 5843 5846 5849 5852 5854
5882 5879 5875 5872 5868 5865 5861 5857 5851 5848 5844 5840 5836 5832 5829 5825 5821 5818 5815 5811 5808 5804 5801 5799 5797 5795 5793 5793 5792 5792 5793 5794 5796 5798 5801 5805 5808 5812 5815 5819 5823 5826 5829 5832 5835 5838 5841 5844 5847
5879 5875 5872 5868 5865 5862 5859 5856 5850 5847 5842 5838 5834 5829 5825 5821 5817 5814 5810 5807 5803 5800 5796 5794 5791 5789 5786 5785 5784 5784 5784 5785 5786 5789 5791 5795 5798 5802 5806 5810 5813 5817 5820 5823 5827 5829 5833 5836 5839
5876 5873 5869 5865 5862 5860 5858 5854 5851 5845 5841 5836 5832 5827 5823 5819 5815 5811 5808 5804 5800 5797 5793 5790 5787 5784 5782 5780 5778 5777 5777 5777 5778 5780 5783 5786 5790 5793 5797 5801 5805 5808 5811 5814 5817 5821 5824 5828 5831
5874 5871 5868 5866 5863 5860 5856 5852 5850 5844 5840 5835 5830 5826 5822 5818 5814 5810 5806 5802 5799 5795 5791 5788 5785 5782 5779 5776 5774 5773 5772 5772 5773 5773 5776 5779 5782 5785 5789 5793 5796 5800 5802 5806 5809 5812 5815 5819 5822
5873 5869 5867 5864 5861 5859 5855 5851 5848 5843 5839 5834 5830 5826 5822 5818 5814 5810 5807 5803 5799 5795 5791 5788 5784 5781 5778 5775 5773 5771 5770 5769 5769 5769 5770 5773 5775 5778 5781 5785 5788 5791 5794 5797 5801 5803 5807 5811 5814
5873 5869 5866 5863 5860 5858 5856 5851 5848 5843 5839 5835 5831 5827 5823 5819 5815 5812 5808 5804 5800 5796 5792 5789 5785 5781 5778 5775 5772 5770 5769 5768 5767 5767 5768 5769 5771 5773 5775 5778 5781 5784 5786 5789 5793 5796 5800 5803 5806
5873 5870 5866 5863 5860 5858 5855 5854 5848 5844 5840 5836 5832 5828 5825 5821 5818 5814 5810 5807 5803 5798 5795 5791 5787 5783 5779 5776 5774 5772 5770 5769 5768 5767 5767 5767 5768 5769 5771 5773 5775 5777 5780 5783 5786 5790 5792 5795 5798
5873 5870 5867 5865 5862 5859 5856 5856 5849 5846 5842 5838 5834 5830 5827 5824 5820 5816 5813 5809 5805 5801 5798 5794 5790 5786 5782 5779 5776 5774 5772 5770 5769 5768 5767 5767 5767 5767 5768 5769 5770 5772 5774 5777 5780 5783 5785 5788 5790